Weather History for KCDN - May, 2013

Change the Weather History Date:

Saturday, May 4, 2013

  Actual Average (KSSC) Record (KSSC)
Temperature  
Mean Temperature 58 °F -  
Max Temperature 66 °F 77 °F 88 °F (2014)
Min Temperature 51 °F 55 °F 42 °F (2004)
Degree Days  
Heating Degree Days 6    
Growing Degree Days 8 (Base 50)    
Moisture  
Dew Point 50 °F    
Average Humidity 75    
Maximum Humidity 82    
Minimum Humidity 59    
Precipitation  
Precipitation 0.00 in - - ()
Sea Level Pressure  
Sea Level Pressure 30.04 in    
Wind  
Wind Speed 12 mph (ENE)    
Max Wind Speed 18 mph    
Max Gust Speed 26 mph    
Visibility 10 miles    
Events      
Averages and records for this station are not official NWS values.
T = Trace of Precipitation, MM = Missing Value Source: NWS Daily Summary

Daily Weather History Graph

Daily Weather History Graph

Search for Another Location

Airport or City:

Trip Planner

Search our weather history database for the weather conditions in past years. The results will help you decide how hot, cold, wet, or windy it might be!

Date:

Astronomy

May. 04, 2013 Rise Set
Actual Time 6:29 AM EDT 8:09 PM EDT
Civil Twilight 6:02 AM EDT 8:36 PM EDT
Nautical Twilight 5:29 AM EDT 9:08 PM EDT
Astronomical Twilight 4:55 AM EDT 9:43 PM EDT
Moon 3:13 AM EDT (5/4) 3:17 PM EDT (5/4)
Length of Visible Light 14h 33m
Length of Day
13h 39m
Waning Crescent, 27% of the Moon is Illuminated
May 4
Waning Crescent
May 9
New
May 18
First Quarter
May 25
Full
May 31
Last Quarter

Hourly Weather History & Observations

Time (EDT) Temp. Dew Point Humidity Pressure Visibility Wind Dir Wind Speed Gust Speed Precip Events Conditions
12:15 AM 59.0 °F 44.6 °F 59% 30.11 in 10.0 mi ENE 15.0 mph 23.0 mph 0.00 in   Overcast
12:35 AM 57.2 °F 44.6 °F 63% 30.11 in 10.0 mi ENE 9.2 mph 19.6 mph 0.00 in   Mostly Cloudy
12:55 AM 57.2 °F 44.6 °F 63% 30.11 in 10.0 mi ENE 11.5 mph 18.4 mph 0.00 in   Mostly Cloudy
1:15 AM 57.2 °F 44.6 °F 63% 30.11 in 10.0 mi ENE 11.5 mph 19.6 mph 0.00 in   Mostly Cloudy
1:35 AM 55.4 °F 44.6 °F 67% 30.10 in 10.0 mi ENE 11.5 mph 17.3 mph 0.00 in   Partly Cloudy
1:55 AM 55.4 °F 44.6 °F 67% 30.09 in 10.0 mi ENE 17.3 mph 21.9 mph 0.00 in   Clear
2:15 AM 55.4 °F 44.6 °F 67% 30.09 in 10.0 mi ENE 9.2 mph 16.1 mph 0.00 in   Clear
2:55 AM 53.6 °F 44.6 °F 72% 30.08 in 10.0 mi NE 10.4 mph 18.4 mph 0.00 in   Clear
3:15 AM 53.6 °F 44.6 °F 72% 30.07 in 10.0 mi NE 11.5 mph - 0.00 in   Scattered Clouds
3:35 AM 53.6 °F 44.6 °F 72% 30.07 in 10.0 mi NE 11.5 mph 17.3 mph 0.00 in   Partly Cloudy
3:55 AM 53.6 °F 44.6 °F 72% 30.07 in 10.0 mi NE 12.7 mph 16.1 mph 0.00 in   Mostly Cloudy
4:15 AM 53.6 °F 44.6 °F 72% 30.07 in 10.0 mi NE 15.0 mph - 0.00 in   Scattered Clouds
4:35 AM 51.8 °F 44.6 °F 76% 30.07 in 10.0 mi NE 13.8 mph 18.4 mph 0.00 in   Clear
4:55 AM 51.8 °F 44.6 °F 76% 30.06 in 10.0 mi NE 11.5 mph 18.4 mph 0.00 in   Clear
5:15 AM 51.8 °F 44.6 °F 76% 30.07 in 10.0 mi ENE 10.4 mph 18.4 mph 0.00 in   Scattered Clouds
5:35 AM 51.8 °F 44.6 °F 76% 30.06 in 10.0 mi NE 11.5 mph - 0.00 in   Scattered Clouds
5:55 AM 51.8 °F 44.6 °F 76% 30.07 in 10.0 mi ENE 9.2 mph - 0.00 in   Partly Cloudy
6:15 AM 51.8 °F 44.6 °F 76% 30.07 in 10.0 mi NE 12.7 mph 17.3 mph 0.00 in   Clear
6:35 AM 51.8 °F 44.6 °F 76% 30.08 in 10.0 mi NE 11.5 mph 18.4 mph 0.00 in   Scattered Clouds
6:55 AM 51.8 °F 44.6 °F 76% 30.08 in 10.0 mi NE 13.8 mph 20.7 mph 0.00 in   Overcast
7:15 AM 51.8 °F 44.6 °F 76% 30.08 in 9.0 mi ENE 10.4 mph 18.4 mph 0.00 in   Mostly Cloudy
7:35 AM 51.8 °F 46.4 °F 82% 30.09 in 10.0 mi ENE 12.7 mph 19.6 mph 0.00 in   Partly Cloudy
7:55 AM 51.8 °F 46.4 °F 82% 30.09 in 10.0 mi NE 12.7 mph 17.3 mph 0.00 in   Scattered Clouds
8:15 AM 51.8 °F 46.4 °F 82% 30.09 in 9.0 mi NE 10.4 mph 16.1 mph 0.00 in   Scattered Clouds
8:35 AM 51.8 °F 46.4 °F 82% 30.08 in 10.0 mi NE 13.8 mph - 0.00 in   Partly Cloudy
8:55 AM 53.6 °F 46.4 °F 77% 30.08 in 9.0 mi NE 13.8 mph 20.7 mph 0.00 in   Mostly Cloudy
9:15 AM 53.6 °F 46.4 °F 77% 30.08 in 9.0 mi NE 15.0 mph 18.4 mph 0.00 in   Overcast
9:35 AM 53.6 °F 48.2 °F 82% 30.07 in 10.0 mi NE 15.0 mph 20.7 mph 0.00 in   Mostly Cloudy
9:55 AM 53.6 °F 48.2 °F 82% 30.08 in 10.0 mi NE 13.8 mph 19.6 mph 0.00 in   Overcast
10:15 AM 55.4 °F 48.2 °F 77% 30.08 in 10.0 mi ENE 17.3 mph 21.9 mph 0.00 in   Overcast
10:35 AM 55.4 °F 50.0 °F 82% 30.07 in 10.0 mi NE 18.4 mph 25.3 mph 0.00 in   Overcast
10:55 AM 55.4 °F 50.0 °F 82% 30.07 in 10.0 mi ENE 16.1 mph 24.2 mph 0.00 in   Overcast
11:15 AM 55.4 °F 50.0 °F 82% 30.07 in 10.0 mi NE 18.4 mph 25.3 mph 0.00 in   Overcast
11:35 AM 57.2 °F 50.0 °F 77% 30.07 in 10.0 mi ENE 11.5 mph 21.9 mph 0.00 in   Overcast
11:55 AM 57.2 °F 51.8 °F 82% 30.06 in 9.0 mi ENE 13.8 mph 21.9 mph 0.00 in   Overcast
12:15 PM 57.2 °F 51.8 °F 82% 30.06 in 10.0 mi NE 12.7 mph 20.7 mph 0.00 in   Overcast
12:35 PM 59.0 °F 51.8 °F 77% 30.05 in 10.0 mi NE 12.7 mph 20.7 mph 0.00 in   Overcast
12:55 PM 60.8 °F 51.8 °F 72% 30.05 in 10.0 mi East 15.0 mph 20.7 mph 0.00 in   Overcast
1:15 PM 62.6 °F 51.8 °F 68% 30.03 in 9.0 mi ENE 15.0 mph 21.9 mph 0.00 in   Overcast
1:35 PM 62.6 °F 53.6 °F 72% 30.03 in 10.0 mi East 13.8 mph 19.6 mph 0.00 in   Overcast
1:55 PM 64.4 °F 53.6 °F 68% 30.03 in 10.0 mi East 17.3 mph 25.3 mph 0.00 in   Mostly Cloudy
2:15 PM 64.4 °F 53.6 °F 68% 30.02 in 10.0 mi East 13.8 mph 21.9 mph 0.00 in   Mostly Cloudy
2:35 PM 66.2 °F 53.6 °F 64% 30.02 in 10.0 mi East 13.8 mph 21.9 mph 0.00 in   Mostly Cloudy
2:55 PM 64.4 °F 53.6 °F 68% 30.02 in 10.0 mi ESE 10.4 mph - 0.00 in   Overcast
3:15 PM 62.6 °F 53.6 °F 72% 30.02 in 10.0 mi East 9.2 mph 17.3 mph 0.00 in   Overcast
3:35 PM 62.6 °F 53.6 °F 72% 30.01 in 7.0 mi East 13.8 mph 18.4 mph 0.00 in   Overcast
3:55 PM 62.6 °F 53.6 °F 72% 29.99 in 10.0 mi East 9.2 mph 19.6 mph 0.00 in   Overcast
4:15 PM 64.4 °F 53.6 °F 68% 29.98 in 10.0 mi ENE 13.8 mph 21.9 mph 0.00 in   Overcast
4:35 PM 64.4 °F 53.6 °F 68% 29.98 in 10.0 mi ENE 9.2 mph 21.9 mph 0.00 in   Overcast
4:55 PM 64.4 °F 53.6 °F 68% 29.99 in 10.0 mi East 9.2 mph 18.4 mph 0.00 in   Overcast
5:15 PM 62.6 °F 53.6 °F 72% 29.99 in 10.0 mi East 12.7 mph 18.4 mph 0.00 in   Overcast
5:35 PM 62.6 °F 53.6 °F 72% 30.00 in 10.0 mi East 6.9 mph - 0.00 in   Overcast
5:55 PM 62.6 °F 55.4 °F 77% 30.00 in 3.0 mi East 5.8 mph - 0.00 in   Light Drizzle
6:15 PM 60.8 °F 55.4 °F 82% 30.00 in 4.0 mi East 11.5 mph 16.1 mph 0.00 in   Haze
6:35 PM 60.8 °F 55.4 °F 82% 29.99 in 9.0 mi East 6.9 mph - 0.00 in   Mostly Cloudy
6:55 PM 62.6 °F 55.4 °F 77% 29.99 in 8.0 mi East 8.1 mph - 0.00 in   Mostly Cloudy
7:15 PM 62.6 °F 53.6 °F 72% 29.98 in 10.0 mi ENE 10.4 mph 16.1 mph 0.00 in   Overcast
7:35 PM 60.8 °F 55.4 °F 82% 29.99 in 3.0 mi East 8.1 mph - 0.00 in   Haze
7:55 PM 60.8 °F 55.4 °F 82% 29.98 in 5.0 mi ENE 6.9 mph - 0.00 in   Overcast
8:15 PM 60.8 °F 55.4 °F 82% 29.99 in 10.0 mi ENE 6.9 mph - 0.00 in   Overcast
8:35 PM 60.8 °F 55.4 °F 82% 29.98 in 10.0 mi ENE 5.8 mph - 0.00 in   Overcast
8:55 PM 60.8 °F 55.4 °F 82% 29.97 in 10.0 mi ENE 10.4 mph - 0.00 in   Mostly Cloudy
9:15 PM 62.6 °F 53.6 °F 72% 29.97 in 10.0 mi ENE 12.7 mph 18.4 mph 0.00 in   Mostly Cloudy
9:35 PM 62.6 °F 53.6 °F 72% 29.97 in 10.0 mi ENE 12.7 mph - 0.00 in   Mostly Cloudy
9:55 PM 62.6 °F 53.6 °F 72% 29.98 in 10.0 mi ENE 13.8 mph 25.3 mph 0.00 in   Mostly Cloudy
10:15 PM 60.8 °F 53.6 °F 77% 29.97 in 10.0 mi East 15.0 mph 20.7 mph 0.00 in   Mostly Cloudy
10:35 PM 60.8 °F 53.6 °F 77% 29.99 in 10.0 mi East 11.5 mph 17.3 mph 0.00 in   Mostly Cloudy
10:55 PM 60.8 °F 53.6 °F 77% 29.99 in 10.0 mi ENE 8.1 mph 23.0 mph 0.00 in   Overcast
11:15 PM 60.8 °F 53.6 °F 77% 29.99 in 10.0 mi ENE 11.5 mph 26.5 mph 0.00 in   Overcast
11:35 PM 60.8 °F 53.6 °F 77% 29.98 in 10.0 mi ENE 12.7 mph 20.7 mph 0.00 in   Overcast
11:55 PM 60.8 °F 53.6 °F 77% 29.98 in 10.0 mi ENE 10.4 mph 18.4 mph 0.00 in   Overcast